DW3845 Weather Reports


Display with metric or nautical units.
time (UTC)temp
F
wind
direction
speed
MPH
gust
MPH
rain 1hr
in
rain 24hr
in
rain mn
in
humidity
%
barometer
mb
20260903213010 59 219 0.0 5.0 0.00 0.27 0.11 57 996.6
20260903211510 60 188 0.0 3.0 0.00 0.27 0.11 56 996.6
20260903210010 60 255 1.0 7.0 0.00 0.27 0.11 54 996.7
20260903204511 60 131 1.0 5.0 0.00 0.30 0.11 56 996.8
20260903203006 60 245 3.0 7.0 0.00 0.30 0.11 55 996.9
20260903201504 60 283 0.0 8.0 0.00 0.30 0.11 61 997.0
20260903200002 60 205 2.0 9.0 0.00 0.30 0.11 65 997.1
20260903194557 57 242 0.0 5.0 0.00 0.32 0.11 86 997.1
20260903193052 54 214 0.0 6.0 0.00 0.32 0.11 70 997.2
20260903191550 53 260 1.0 5.0 0.00 0.32 0.11 69 997.1
20260903190050 52 207 0.0 7.0 0.00 0.32 0.11 69 997.1
20260903184549 52 160 0.0 7.0 0.00 0.35 0.11 68 997.0
20260903183049 52 274 1.0 5.0 0.00 0.35 0.11 68 997.1
20260903181547 52 155 0.0 4.0 0.00 0.35 0.11 68 997.0
20260903180045 52 152 0.0 8.0 0.00 0.35 0.11 68 996.9
20260903174545 52 208 1.0 4.0 0.00 0.35 0.11 69 996.7
20260903173041 51 243 0.0 4.0 0.00 0.35 0.11 70 996.8
20260903171539 51 271 0.0 7.0 0.00 0.35 0.11 70 996.8
20260903170039 51 135 0.0 2.0 0.00 0.35 0.11 70 996.8
20260903164536 51 208 0.0 3.0 0.00 0.35 0.11 70 996.7
20260903163039 51 259 0.0 4.0 0.00 0.35 0.11 70 996.8
20260903161533 51 144 0.0 3.0 0.00 0.35 0.11 70 996.7
20260903160030 52 280 0.0 0.0 0.00 0.35 0.11 70 996.6
20260903154528 51 283 0.0 0.0 0.00 0.35 0.11 71 996.6
20260903153027 51 281 0.0 0.0 0.00 0.35 0.11 71 996.7
20260903151525 51 283 0.0 0.0 0.00 0.35 0.11 71 996.5
20260903150025 50 282 0.0 0.0 0.00 0.35 0.11 71 996.4
20260903144524 50 138 0.0 0.0 0.00 0.35 0.11 71 996.2
20260903143021 50 253 0.0 0.0 0.00 0.35 0.11 70 996.1
20260903141518 50 253 0.0 0.0 0.01 0.35 0.11 70 995.9
20260903140017 50 253 0.0 0.0 0.01 0.35 0.11 70 995.7
20260903134516 50 253 0.0 0.0 0.02 0.35 0.11 70 995.5
20260903133017 50 252 0.0 0.0 0.02 0.35 0.11 70 995.2
20260903131511 50 252 0.0 0.0 0.01 0.34 0.10 70 995.1
20260903130010 51 252 0.0 0.0 0.02 0.34 0.10 69 995.0
20260903124516 51 141 0.0 0.0 0.02 0.33 0.09 69 994.9
20260903123005 51 143 0.0 0.0 0.02 0.33 0.09 69 994.8
20260903121505 51 143 0.0 0.0 0.03 0.33 0.09 69 994.7
20260903120005 51 143 0.0 1.0 0.03 0.32 0.08 69 994.6
20260903114503 51 13 0.0 0.0 0.03 0.31 0.07 69 994.6
20260903113002 51 13 0.0 0.0 0.04 0.31 0.07 68 994.6
20260903111600 51 13 0.0 0.0 0.04 0.30 0.06 68 994.6
20260903110103 51 13 0.0 0.0 0.03 0.28 0.05 68 994.4
20260903104604 51 13 0.0 0.0 0.03 0.28 0.04 68 994.4
20260903103101 52 13 0.0 0.0 0.02 0.27 0.03 68 994.3
20260903101608 52 10 0.0 0.0 0.01 0.26 0.02 68 994.4
20260903100056 51 11 0.0 0.0 0.01 0.26 0.02 67 994.2
20260903094559 51 11 0.0 0.0 0.00 0.25 0.01 67 994.2
20260903093108 51 11 0.0 0.0 0.00 0.25 0.01 67 994.1
20260903091554 51 10 0.0 0.0 0.00 0.25 0.01 67 994.2
20260903090056 52 10 0.0 0.0 0.01 0.25 0.01 67 994.1
20260903084551 52 10 0.0 0.0 0.01 0.25 0.01 66 994.2
20260903083049 52 10 0.0 0.0 0.01 0.25 0.01 66 994.2
20260903081553 52 11 0.0 0.0 0.01 0.25 0.01 66 994.3
20260903080049 52 11 0.0 0.0 0.00 0.24 0.00 66 994.4
20260903074547 52 10 0.0 0.0 0.00 0.24 0.00 66 994.6
20260903071544 52 10 0.0 0.0 0.02 0.24 0.00 66 994.3
20260903070040 53 11 0.0 0.0 0.04 0.24 0.00 66 994.4
20260903064541 53 43 0.0 0.0 0.07 0.24 0.24 66 994.6
20260903063106 53 42 0.0 0.0 0.07 0.23 0.23 66 994.8
20260903061539 53 43 0.0 0.0 0.06 0.22 0.22 67 994.8
20260903060038 54 316 0.0 0.0 0.04 0.20 0.20 66 994.8
20260903054538 54 316 0.0 0.0 0.01 0.17 0.17 66 994.8
20260903053037 54 316 0.0 0.0 0.00 0.16 0.16 66 994.5
20260903051543 54 311 0.0 0.0 0.05 0.16 0.16 67 994.6
20260903050046 54 6 0.0 0.0 0.08 0.16 0.16 69 994.3
20260903044535 55 40 0.0 1.0 0.08 0.16 0.16 71 994.1
20260903043035 55 300 0.0 0.0 0.08 0.16 0.16 75 994.2
20260903041534 55 248 1.0 4.0 0.02 0.10 0.10 80 994.1
20260903040033 54 23 0.0 0.0 0.00 0.08 0.08 83 993.2
20260903034533 54 23 0.0 0.0 0.00 0.08 0.08 83 992.8
20260903033032 54 23 0.0 0.0 0.00 0.08 0.08 82 992.6
20260903031532 55 20 0.0 0.0 0.00 0.08 0.08 82 992.4
20260903030031 54 44 0.0 2.0 0.00 0.08 0.08 82 992.4
20260903024531 56 40 0.0 1.0 0.00 0.08 0.08 80 992.5
20260903023030 57 360 0.0 2.0 0.00 0.08 0.08 79 992.5
20260903021531 58 346 0.0 2.0 0.00 0.08 0.08 77 992.5
20260903020029 59 315 0.0 1.0 0.00 0.08 0.08 76 992.4
20260903014528 60 51 0.0 3.0 0.00 0.08 0.08 73 992.5
20260903013027 61 329 0.0 3.0 0.00 0.08 0.08 72 992.6
20260903011531 62 8 1.0 3.0 0.00 0.08 0.08 69 992.8
20260903010031 62 12 0.0 5.0 0.00 0.08 0.08 69 993.0
20260903004627 62 27 0.0 6.0 0.00 0.08 0.08 70 993.1
20260903003026 62 54 1.0 6.0 0.00 0.08 0.08 70 993.2
20260903001524 62 49 1.0 5.0 0.00 0.08 0.08 71 993.2
20260903000024 62 28 1.0 5.0 0.00 0.08 0.08 69 993.3
20260902234534 63 340 1.0 5.0 0.00 0.08 0.08 68 993.4
20260902233023 63 6 0.0 4.0 0.00 0.08 0.08 67 993.6
20260902231535 64 144 0.0 4.0 0.00 0.08 0.08 69 993.5
20260902230029 64 298 0.0 3.0 0.00 0.08 0.08 72 993.7
20260902224520 63 162 0.0 3.0 0.00 0.08 0.08 70 993.6
20260902223018 63 246 0.0 4.0 0.00 0.08 0.08 68 993.8
20260902221519 61 250 0.0 4.0 0.00 0.08 0.08 74 993.8
20260902220012 61 172 0.0 3.0 0.00 0.08 0.08 75 994.0
20260902214510 60 167 0.0 5.0 0.00 0.08 0.08 75 994.2